Location: Paderno d�Adda
(45.6667°N, 9.4333°E)
Time: 00:22:20
(UTC+00:00)

Lacrosse 5 rocket - Pass Details

Date: 19 September 2020
Orbit: 460 x 636 km, 57.0° (Epoch: 26 October)

Event Time Altitude Azimuth Distance (km) Brightness Sun altitude
Rises 18:01:03 0° 264° (W) 2,720 6.7 -7.1°
Reaches altitude 10° 18:03:27 10° 276° (W) 1,860 5.8 -7.5°
Maximum altitude 18:07:10 29° 338° (NNW) 1,088 3.2 -8.1°
Drops below altitude 10° 18:11:05 10° 39° (NE) 1,956 3.9 -8.8°
Sets 18:13:40 0° 50° (NE) 2,887 4.6 -9.3°
Enters shadow 18:13:45 - 51° (NE) 2,915 4.6 -9.3°
